Home   Weather   Gmünd   Past weeks

Flag for Austria Past Weather in Gmünd, Lower Austria, Austria — Yesterday and Last 2 Weeks

Now
60 °F

Cool.


Feels Like: 60 °F
Forecast: 44 / 59 °F
Wind: 5 mph from Northeast

Location: Retz

Current Time: Sep 25, 2016 at 10:56:06 AM

Latest Report: Sep 25, 2016 at 10:00 AM


Visibility: N/A

Pressure: 30.21 "Hg

Humidity: 72%

Dew Point: 51 °F

Location of GmündLocation

Past Weather in Gmünd — Graph

°F

Gmünd Temperature Yesterday

Maximum temperature yesterday: 72 °F (at 3:00 PM)
Minimum temperature yesterday: 49 °F (at 7:00 AM)
Average temperature yesterday: 61 °F

High & Low Weather Summary for the Past Weeks

 TemperatureHumidityPressure
High85 °F (Sep 12, 4:00 PM)94% (Sep 17, 7:00 AM)30.34 "Hg (Sep 17, 7:00 AM)
Low45 °F (Sep 23, 6:00 AM)36% (Sep 10, 4:00 PM)29.74 "Hg (Sep 17, 3:00 AM)
Average65 °F65%30.02 "Hg
* Reported Sep 10 9:00 AM — Sep 25 9:00 AM, Gmünd, Weather by CustomWeather, © 2016

Note: Actual official high and low records may vary slightly from our data, if they occured in-between our weather recording intervals... More about our weather records

Advertising

Gmünd Weather History for the Previous 24 Hours

Scroll right to see more
 ConditionsComfort  
Time TempWeatherWind HumidityBarometerVisibility
9:00 AM
Sun, Sep 25
57 °FCool.5 mph78%30.21 "HgN/A
8:00 AM55 °FFog.5 mph84%30.22 "Hg2 mi
7:00 AM54 °FFog.6 mph85%30.22 "Hg2 mi
6:00 AM54 °FCool.6 mph83%30.22 "HgN/A
5:00 AM54 °FCool.5 mph76%30.23 "HgN/A
4:00 AM55 °FCool.3 mph76%30.22 "HgN/A
3:00 AM56 °FCool.5 mph69%30.23 "HgN/A
2:00 AM58 °FCool.2 mph64%30.23 "HgN/A
1:00 AM60 °FRefreshingly cool.2 mph58%30.22 "HgN/A
12:00 AM61 °FRefreshingly cool.3 mph58%30.24 "HgN/A
11:00 PM
Sat, Sep 24
61 °FRefreshingly cool.3 mph57%30.24 "HgN/A
10:00 PM62 °FMild.2 mph57%30.24 "HgN/A
9:00 PM63 °FMild.1 mph58%30.25 "HgN/A
8:00 PM64 °FPassing clouds.1 mph54%30.24 "Hg11 mi
7:00 PM68 °FMild.No wind45%30.23 "HgN/A
6:00 PM70 °FMild.1 mph41%30.23 "HgN/A
5:00 PMN/A1 mphN/AN/AN/A
4:00 PM71 °FMild.1 mph40%30.24 "HgN/A
3:00 PM72 °FMild.2 mph38%30.26 "HgN/A
2:00 PM70 °FPartly sunny.2 mph40%30.27 "Hg14 mi
1:00 PM69 °FMild.2 mph48%30.29 "HgN/A
12:00 PM67 °FMild.2 mph52%30.31 "HgN/A
11:00 AM65 °FMild.1 mph57%30.32 "HgN/A
10:00 AM61 °FCool.2 mph64%30.33 "HgN/A
Weather by CustomWeather, © 2016

See weather overviewHow to use our weather pages